Home   Weather   Mühlacker   Past weeks

Flag for Germany Past Weather in Mühlacker, Baden-Württemberg, Germany — Yesterday and Last 2 Weeks

Now
14 °F

Sunny.


Feels Like: 14 °F
Forecast: 10 / 27 °F
Wind: 2 mph from North

Location: Stuttgart-Echterdingen

Current Time: Jan 20, 2017 at 8:45:53 am

Latest Report: Jan 20, 2017 at 8:20 am


Visibility: 10 mi

Pressure: 30.45 "Hg

Humidity: 85%

Dew Point: 10 °F

Location of MühlackerLocation

Past Weather in Mühlacker — Graph

°F

Mühlacker Temperature Yesterday

Maximum temperature yesterday: 28 °F (at 1:50 pm)
Minimum temperature yesterday: 18 °F (at 3:50 am)
Average temperature yesterday: 22 °F

High & Low Weather Summary for the Past Weeks

 TemperatureHumidityPressure
High43 °F (Jan 13, 12:20 am)100% (Jan 6, 7:50 am)30.66 "Hg (Jan 6, 7:50 am)
Low7 °F (Jan 7, 2:50 am)59% (Jan 6, 1:20 pm)29.33 "Hg (Jan 13, 12:20 am)
Average28 °F82%30.19 "Hg
* Reported Jan 5 7:20 am — Jan 20 7:50 am, Mühlacker, Weather by CustomWeather, © 2017

Note: Actual official high and low records may vary slightly from our data, if they occured in-between our weather recording intervals... More about our weather records

Advertising

Mühlacker Weather History for the Previous 24 Hours

Scroll right to see more
 ConditionsComfort  
Time TempWeatherWind HumidityBarometerVisibility
7:50 am
Fri, Jan 20
16 °FClear.1 mph86%30.45 "Hg10 mi
7:20 am16 °FClear.1 mph86%30.45 "Hg10 mi
6:50 am18 °FClear.1 mph79%30.42 "Hg10 mi
6:20 am18 °FClear.1 mph79%30.45 "Hg10 mi
5:50 am18 °FPassing clouds.3 mph79%30.42 "HgN/A
5:20 am16 °FClear.1 mph86%30.45 "Hg10 mi
4:50 am16 °FClear.1 mph86%30.45 "Hg10 mi
4:20 am16 °FPassing clouds.5 mph86%30.45 "HgN/A
3:50 am18 °FClear.1 mph86%30.45 "Hg10 mi
3:20 am18 °FClear.1 mph86%30.45 "Hg10 mi
2:50 am18 °FClear.3 mph79%30.45 "Hg10 mi
2:20 am19 °FClear.2 mph79%30.45 "Hg10 mi
1:50 am19 °FClear.3 mph79%30.45 "Hg10 mi
1:20 am18 °FClear.1 mph86%30.45 "Hg10 mi
12:50 am18 °FClear.1 mph86%30.45 "Hg10 mi
12:20 am19 °FClear.5 mph79%30.45 "Hg10 mi
11:50 pm
Thu, Jan 19
21 °FClear.3 mph74%30.45 "Hg10 mi
11:20 pm19 °FClear.5 mph79%30.45 "Hg10 mi
10:50 pm21 °FClear.2 mph80%30.45 "Hg10 mi
10:20 pm23 °FClear.3 mph74%30.48 "Hg10 mi
9:50 pm23 °FClear.6 mph74%30.48 "Hg10 mi
9:20 pm23 °FClear.3 mph74%30.48 "Hg10 mi
8:50 pm23 °FClear.3 mph74%30.48 "Hg10 mi
8:20 pm23 °FClear.3 mph74%30.48 "Hg10 mi
7:50 pm25 °FClear.5 mph69%30.48 "Hg10 mi
7:20 pm25 °FClear.3 mph69%30.48 "Hg10 mi
6:50 pm25 °FClear.2 mph69%30.48 "Hg10 mi
6:20 pm25 °FClear.5 mph69%30.48 "Hg10 mi
5:50 pm25 °FClear.7 mph69%30.48 "Hg10 mi
5:20 pm27 °FClear.8 mph64%30.48 "Hg10 mi
4:50 pm27 °FSunny.8 mph69%30.45 "Hg10 mi
4:20 pm28 °FSunny.8 mph64%30.45 "Hg10 mi
3:50 pm28 °FSunny.8 mph64%30.45 "Hg10 mi
3:20 pm28 °FSunny.8 mph64%30.45 "Hg10 mi
2:50 pm28 °FPassing clouds.7 mph64%30.45 "HgN/A
2:20 pm28 °FPassing clouds.7 mph64%30.45 "HgN/A
1:50 pm28 °FPassing clouds.8 mph64%30.45 "HgN/A
1:20 pm27 °FPassing clouds.7 mph64%30.48 "HgN/A
12:50 pm25 °FSunny.7 mph69%30.48 "Hg10 mi
12:20 pm25 °FPassing clouds.6 mph69%30.48 "HgN/A
11:50 am25 °FPassing clouds.7 mph69%30.48 "HgN/A
11:20 am23 °FPassing clouds.6 mph74%30.48 "HgN/A
10:50 am21 °FPassing clouds.5 mph80%30.48 "HgN/A
10:20 am21 °FPassing clouds.5 mph80%30.48 "HgN/A
9:50 am19 °FSunny.6 mph86%30.48 "Hg10 mi
9:20 am19 °FPassing clouds.5 mph79%30.48 "HgN/A
8:50 am18 °FClear.6 mph86%30.48 "Hg6 mi
8:20 am18 °FClear.6 mph86%30.48 "Hg6 mi
Weather by CustomWeather, © 2017

See weather overviewHow to use our weather pages